EDT,Max TemperatureF,Mean TemperatureF,Min TemperatureF,Max Dew PointF,MeanDew PointF,Min DewpointF,Max Humidity, Mean Humidity, Min Humidity, Max Sea Level PressureIn, Mean Sea Level PressureIn, Min Sea Level PressureIn, Max VisibilityMiles, Mean VisibilityMiles, Min VisibilityMiles, Max Wind SpeedMPH, Mean Wind SpeedMPH, Max Gust SpeedMPH,PrecipitationIn, CloudCover, Events, WindDirDegrees
2013-6-1,79,70,62,65,61,58,93,81,64,30.01,29.98,29.94,10,9,7,13,6,21,0.00,0,,198
2013-6-2,70,65,60,63,61,58,100,91,78,29.94,29.89,29.84,10,7,0,17,10,29,0.00,4,Fog-Rain,199
2013-6-3,66,62,59,65,61,59,100,97,93,29.87,29.84,29.81,10,3,0,12,7,22,0.48,8,Fog-Rain-Thunderstorm,205
2013-6-4,71,62,54,61,45,37,100,55,39,30.07,29.93,29.82,10,10,2,14,10,22,0.00,2,,317
2013-6-5,66,59,52,52,47,44,87,64,45,30.19,30.15,30.08,10,10,10,13,5,,0.00,0,,170
2013-6-6,69,58,50,57,53,49,96,79,56,30.19,30.16,30.09,10,10,10,12,4,17,0.00,1,,129
2013-6-7,64,58,57,58,56,51,100,95,78,30.07,29.90,29.74,10,4,1,16,8,26,3.40,8,Rain,54
2013-6-8,71,62,55,66,61,55,100,91,68,30.01,29.73,29.54,10,5,1,20,12,30,0.55,6,Rain-Thunderstorm,213
2013-6-9,75,66,59,61,57,52,96,73,46,30.17,30.10,30.03,10,9,2,13,4,21,0.00,0,,272
2013-6-10,71,63,55,60,58,54,96,85,63,30.19,30.10,29.96,10,7,2,14,6,21,0.71,5,Rain,88
2013-6-11,73,66,59,66,62,57,100,94,79,29.94,29.73,29.57,10,5,0,20,10,30,1.24,7,Fog-Rain,148
2013-6-12,70,64,59,58,53,51,94,70,53,29.81,29.67,29.59,10,9,2,22,9,30,0.00,3,,302
2013-6-13,64,57,51,56,53,49,94,86,75,29.82,29.70,29.57,10,8,2,22,6,29,0.28,6,Rain,76
2013-6-14,66,60,53,55,51,47,94,83,56,29.77,29.63,29.55,10,7,2,25,14,37,0.57,6,Rain,23
2013-6-15,77,65,55,56,50,42,84,58,32,29.96,29.89,29.78,10,10,10,10,6,,0.00,0,,299
2013-6-16,73,62,53,61,55,50,100,79,47,29.96,29.89,29.77,10,8,1,13,3,22,0.00,2,,192
2013-6-17,79,70,61,65,61,58,90,77,60,29.92,29.86,29.81,10,10,9,13,4,23,0.01,1,Rain,199
2013-6-18,77,67,57,64,60,55,100,84,60,29.93,29.90,29.86,10,8,1,16,3,21,0.02,3,Rain,68
2013-6-19,73,65,57,57,53,46,97,73,41,30.15,29.98,29.86,10,10,9,13,9,21,0.00,3,Rain,14
2013-6-20,73,64,55,60,55,49,93,72,53,30.28,30.24,30.17,10,10,10,12,4,18,0.00,0,,200
2013-6-21,72,66,60,59,56,52,86,70,60,30.29,30.27,30.24,10,10,10,13,7,24,0.00,0,,202
2013-6-22,75,68,61,63,59,54,96,78,59,30.26,30.22,30.17,10,10,10,14,6,18,0.00,1,,200
2013-6-23,78,68,62,67,64,61,100,88,67,30.19,30.14,30.07,10,8,2,12,7,21,0.00,4,,200
2013-6-24,86,75,66,72,68,64,100,85,63,30.07,30.00,29.91,10,6,0,15,6,23,0.00,4,Fog,219
2013-6-25,87,76,66,69,66,63,91,76,49,29.95,29.87,29.77,10,9,6,10,4,18,0.03,1,,215
2013-6-26,84,76,68,72,69,66,100,83,65,29.84,29.78,29.74,10,7,1,9,2,,0.00,1,Rain,221
2013-6-27,73,70,66,69,67,66,100,93,82,29.84,29.80,29.73,10,4,0,9,3,,0.00,7,Fog,109
2013-6-28,72,68,66,70,68,66,100,99,93,29.73,29.61,29.55,7,2,0,16,10,24,0.90,8,Fog-Rain-Thunderstorm,175
2013-6-29,75,70,68,70,68,66,100,95,79,29.75,29.63,29.53,10,4,0,16,10,23,0.18,7,Fog-Rain-Thunderstorm,185
2013-6-30,73,70,68,70,68,65,100,94,76,29.96,29.87,29.75,10,4,0,12,7,20,0.23,7,Fog-Rain,193